Wind_Gust
3 2 3 2 5 3 2 6 9 11 6 12 6 7 17 3 9 12 14 10 12 5 9 13 4 5 6 11 13 12 14 8 5 23 15 16 11 18 18 21 18 18 20 20 17 17 19 19 20 21 21 23 25 24 23 24 24 23 23 23 24 23 23 23 23 22 22 21 21 21 22 22 22 22 22 22 23 23 23 24 23 23 23 23 22 22 21 21 21 22 24 23 23 23 22 22 22
3 1 2 1 2 2 6 7 8 2 5 9 16 3 12 5 2 11 12 9 5 5 5 12 21 23 22 20 15 6 14 13 4 7 12 11 17 18 18 22 20 23 19 19 18 18 16 19 20 21 23 25 24 24 23 23 24 25 26 24 23 23 24 23 22 21 21 20 20 20 21 21 21 21 22 22 22 20 18 21 22 23 22 22 21 21 21 21 21 22 22 22 22 22 21 21 20
2 1 5 6 6 5 3 5 8 4 6 16 14 18 4 5 11 14 12 9 7 7 7 8 7 6 6 3 9 7 4 6 16 14 18 14 23 18 16 18 18 20 20 19 20 18 16 17 20 21 25 24 25 25 23 23 24 24 24 22 22 23 22 23 22 21 20 19 20 20 20 20 18 19 20 19 17 16 18 18 22 23 22 22 21 20 20 21 21 21 21 21 21 20 20 20 20
4 3 4 5 5 7 7 5 6 12 10 11 13 13 13 8 15 12 10 9 10 11 9 3 7 8 7 16 14 15 13 7 5 14 27 20 16 19 19 18 19 19 19 19 19 17 16 19 20 23 25 25 24 24 23 24 24 23 23 23 23 22 21 21 21 21 20 20 20 19 20 20 18 17 18 18 17 16 16 17 19 21 21 20 20 20 19 20 20 20 20 20 20 20 20 20 19
2 2 3 6 10 4 6 9 7 8 17 13 10 9 5 7 11 11 12 11 10 14 10 9 12 5 7 11 4 6 9 8 10 3 20 11 18 18 18 18 19 22 19 19 19 18 17 23 21 21 23 27 24 25 24 24 23 22 23 23 22 22 22 21 20 20 20 19 19 19 20 19 18 17 17 18 16 15 15 15 14 17 20 20 19 18 17 18 19 18 19 19 19 20 19 18 18
7 4 5 5 6 6 7 4 6 13 12 6 6 11 5 9 11 11 12 12 11 4 5 5 11 9 10 7 6 12 16 17 10 6 17 17 20 19 19 18 22 21 18 17 17 16 18 21 20 21 22 25 25 24 24 23 23 23 22 22 22 22 22 21 20 20 21 20 18 19 19 19 20 18 17 17 16 17 18 18 20 22 22 20 19 18 19 19 17 18 18 18 19 18 18 16 16
4 7 7 5 4 8 9 5 10 12 16 5 12 16 18 19 19 11 17 9 5 9 7 7 16 16 20 12 16 9 2 8 14 12 10 22 20 18 18 19 20 21 19 18 16 16 18 20 20 20 22 24 24 24 24 23 22 22 22 22 22 22 22 21 21 20 20 20 19 19 19 19 19 18 18 18 18 17 16 17 20 21 20 19 19 19 18 16 17 18 18 18 17 16 16 15 14
3 7 5 6 7 4 4 4 13 8 14 10 9 17 21 19 16 13 18 3 7 5 3 10 6 18 4 4 13 5 8 5 15 17 21 21 18 16 17 19 22 21 20 17 15 15 21 19 19 20 21 22 23 23 23 23 22 21 21 21 21 21 21 21 20 19 17 19 19 18 18 18 18 19 18 18 19 18 18 18 19 19 18 19 18 18 16 17 17 17 16 15 14 14 14 14 14
6 8 3 9 4 6 4 10 14 7 14 10 17 14 19 21 19 16 21 16 2 4 14 8 5 15 6 14 11 5 12 16 18 22 20 19 18 18 19 19 23 21 19 17 16 15 16 18 19 20 21 22 23 23 23 22 21 21 20 20 20 18 19 19 20 19 17 16 16 18 18 18 18 19 18 18 19 18 18 17 16 17 18 19 20 19 16 16 16 16 14 13 13 13 13 13 14
5 4 5 9 7 4 4 14 4 11 8 7 12 18 18 19 15 8 15 19 11 12 8 4 3 18 17 18 13 5 12 17 21 17 16 17 19 17 18 18 21 22 19 18 16 15 15 20 19 19 19 20 20 20 20 19 19 18 19 19 19 17 18 18 17 17 16 16 15 16 17 17 17 18 18 19 19 18 18 18 16 18 19 19 20 19 17 14 14 14 13 12 11 12 12 13 14
7 7 5 7 2 4 10 11 8 13 12 12 14 21 20 24 17 21 12 15 4 16 10 19 20 19 14 12 9 7 14 17 24 22 15 16 18 19 19 17 20 21 21 17 15 14 15 16 21 18 17 19 18 18 17 17 17 17 17 17 17 19 19 17 17 18 17 16 16 16 15 16 16 17 18 18 18 18 17 16 16 17 18 18 18 19 18 15 13 13 11 10 10 10 11 12 13
6 5 4 6 7 11 9 7 9 17 15 10 18 18 8 15 19 13 8 9 7 4 13 7 21 24 17 14 15 15 14 14 16 18 17 17 18 19 20 17 18 17 19 18 16 14 13 14 15 20 19 18 17 18 17 18 18 17 18 18 17 17 17 16 16 15 15 16 15 14 14 14 15 16 16 16 16 17 16 16 16 17 18 20 19 19 18 16 13 11 10 9 8 9 11 11 13
8 4 7 7 8 3 6 4 13 9 14 16 9 19 7 11 17 10 6 6 7 9 6 4 27 6 15 13 17 16 18 14 13 16 18 18 18 19 17 18 18 17 16 16 16 13 13 11 13 14 17 22 19 17 17 17 17 17 17 19 18 19 19 18 18 17 15 14 13 13 14 15 15 15 15 15 15 15 15 15 15 15 17 18 18 18 17 15 13 10 9 8 8 8 10 11 12
10 11 8 8 2 5 4 8 6 9 15 17 8 13 19 12 9 14 12 8 4 6 3 17 14 14 19 20 19 18 19 19 18 16 15 14 17 17 17 17 16 16 15 15 16 16 13 11 11 11 16 16 15 18 18 19 18 18 17 17 18 17 16 17 15 14 14 14 15 16 15 15 14 14 14 14 14 14 13 13 14 15 15 15 16 16 16 15 14 12 8 8 7 9 10 12 13
7 4 5 5 6 3 7 10 6 4 17 9 9 16 26 12 7 7 15 16 5 4 17 7 19 18 21 22 20 24 22 20 20 16 14 12 14 17 17 17 16 15 15 14 14 15 14 12 12 13 13 12 12 11 13 18 19 19 17 19 19 17 17 18 16 14 15 14 17 17 16 16 15 15 15 14 14 14 14 12 13 13 14 14 14 14 14 15 14 12 9 7 8 8 9 11 11
8 5 4 4 8 5 14 7 5 3 23 5 9 14 14 14 7 5 7 8 15 7 6 15 8 5 17 18 22 28 25 23 20 20 18 15 14 17 18 17 16 15 14 14 14 13 14 13 12 12 13 12 10 10 12 13 18 20 18 17 18 18 19 18 15 15 17 16 17 17 16 15 14 14 17 14 14 14 12 10 12 12 12 12 12 13 13 13 12 11 9 6 6 7 9 10 9
3 4 5 6 11 6 11 10 8 12 12 10 10 11 16 23 9 7 9 10 20 4 6 6 6 4 25 12 19 23 22 22 21 22 20 18 17 19 18 16 16 13 13 12 11 14 13 13 14 13 12 12 12 12 11 11 16 19 16 18 18 18 17 18 15 17 17 16 15 15 13 9 8 9 10 8 11 8 9 11 11 12 11 11 11 11 12 12 12 10 8 6 4 7 6 7 8
5 8 9 8 13 11 11 13 10 5 12 16 17 9 14 15 10 9 10 15 14 11 12 7 15 11 16 21 21 21 23 25 24 25 21 18 16 19 19 16 17 16 14 12 10 11 13 13 14 14 13 13 13 13 11 10 12 13 9 9 10 14 14 15 13 11 14 12 16 13 9 9 8 8 7 9 6 8 9 11 11 11 11 12 11 10 12 12 12 10 8 6 4 6 7 5 6
10 7 9 17 11 16 8 7 6 7 12 14 17 13 9 8 3 5 11 3 4 16 12 9 19 17 18 21 23 24 25 25 24 24 22 19 19 22 18 17 16 16 15 14 11 11 11 13 13 14 13 14 14 12 12 11 11 9 8 8 10 12 12 13 11 13 10 11 10 10 9 7 6 6 6 8 6 10 9 11 11 11 10 11 11 10 11 12 11 10 9 8 7 8 6 4 4
11 9 10 18 11 6 10 7 9 7 12 21 17 12 10 8 6 4 7 5 4 17 17 12 20 22 21 21 23 24 25 25 23 23 18 18 21 23 21 20 18 14 15 14 13 11 12 12 13 13 15 14 13 11 11 11 9 9 8 7 9 10 10 11 12 11 10 9 8 9 9 6 6 3 11 15 12 7 8 9 10 10 10 11 11 7 9 11 13 12 13 11 7 5 3 3 7
8 11 15 17 5 10 14 6 9 12 11 12 13 12 16 11 6 5 11 11 3 5 15 25 24 28 24 24 24 22 22 22 18 17 12 14 15 16 20 20 23 18 15 15 13 12 11 12 13 13 13 14 12 12 13 10 10 10 8 8 9 10 11 11 11 11 9 8 7 8 9 7 6 6 7 6 6 6 6 5 5 5 5 6 8 5 4 8 8 6 6 7 5 2 3 3 7
5 13 12 13 5 9 15 13 14 12 13 12 16 13 18 4 3 7 12 11 12 18 17 18 30 29 29 26 23 20 15 23 26 20 13 20 16 11 10 12 10 12 14 15 14 14 11 12 12 11 13 12 11 11 11 14 13 11 9 9 10 9 11 12 10 10 9 8 6 8 9 8 6 7 6 5 5 6 6 5 5 5 4 4 5 6 4 6 6 5 6 5 2 1 1 2 4
12 10 8 11 9 12 9 11 13 6 14 12 10 8 8 5 4 8 10 11 11 3 8 18 29 30 27 27 25 21 27 27 22 23 17 16 9 9 13 12 15 15 15 13 13 12 13 13 12 12 11 12 11 10 11 11 10 10 9 9 11 10 10 12 11 10 9 8 6 8 10 7 7 7 7 5 6 5 6 4 4 3 4 2 1 5 5 5 6 5 5 4 2 3 4 5 4
8 18 6 13 6 10 14 15 14 13 11 20 20 7 12 15 11 7 9 13 4 8 14 10 13 18 24 26 18 20 22 23 22 16 24 23 27 19 12 14 10 9 12 13 14 14 13 15 14 13 11 11 9 10 10 11 9 11 11 12 10 13 12 12 11 10 9 9 7 7 7 7 8 7 6 6 6 6 4 3 3 3 3 1 1 3 7 6 7 5 4 3 5 5 5 5 4
9 16 9 12 9 11 15 14 15 14 16 19 11 12 21 15 9 4 10 9 12 14 17 16 17 20 21 21 21 22 22 19 15 16 17 21 21 25 11 8 10 11 14 14 15 17 16 15 14 13 12 11 10 10 11 10 10 10 9 10 10 13 11 11 11 10 10 8 6 7 8 9 5 6 6 6 6 6 4 4 4 3 3 2 2 5 5 7 7 5 4 4 4 5 5 6 6
12 18 13 10 11 9 9 7 9 14 15 8 10 14 17 14 4 6 4 4 11 19 19 20 19 21 21 21 23 23 22 20 18 22 25 15 14 23 17 14 14 14 14 15 15 14 16 17 16 13 12 12 11 10 10 11 10 10 10 10 10 12 9 10 9 10 9 9 8 7 7 8 9 9 7 5 8 6 6 4 4 4 4 3 2 5 5 6 6 4 3 4 4 3 4 4 6
6 6 7 11 12 10 8 9 11 9 9 4 10 13 17 8 6 10 2 6 12 18 19 19 22 24 21 20 20 19 23 21 20 19 15 13 15 16 20 17 17 15 15 16 15 15 15 15 16 14 11 11 10 10 9 10 9 9 9 8 8 10 9 10 8 8 8 7 8 7 6 7 7 8 8 7 5 7 5 5 4 4 4 2 3 4 5 6 6 5 3 4 5 5 7 6 8
5 9 7 9 11 12 12 8 13 7 14 9 12 16 16 7 3 9 9 10 15 20 17 18 19 20 22 20 19 16 19 18 16 18 21 19 18 19 17 19 16 13 15 16 15 16 17 16 16 15 13 10 10 9 8 9 9 9 8 8 9 9 9 9 9 9 9 7 6 7 7 8 8 8 8 7 7 6 6 6 5 5 4 4 4 4 7 6 6 4 4 4 5 5 7 7 8
6 2 12 12 11 19 5 10 9 7 13 5 12 9 11 6 6 9 10 15 16 21 20 19 19 18 19 20 16 17 18 20 19 18 22 23 21 18 20 13 15 15 9 13 16 17 18 18 18 16 15 11 11 11 10 8 8 9 9 9 10 11 10 9 9 9 8 7 6 6 7 7 7 9 8 8 8 7 6 6 5 4 5 5 5 6 7 6 6 5 5 5 5 7 7 7 10
3 3 5 12 13 18 11 5 7 5 9 7 10 12 12 14 13 12 4 16 15 16 19 20 18 16 17 17 14 14 14 16 20 21 20 20 20 17 16 12 11 12 14 12 14 17 16 16 18 18 18 15 13 11 9 9 8 9 9 9 10 10 8 9 8 7 7 7 6 5 5 5 5 5 7 5 6 7 6 6 5 4 4 5 6 8 8 6 6 5 3 4 8 7 7 6 9
7 9 4 12 7 19 7 5 3 4 6 6 9 13 15 14 16 14 4 16 23 21 19 20 19 16 17 14 14 15 16 18 22 20 17 15 13 13 15 12 12 13 14 14 16 17 16 17 19 18 19 16 14 12 12 11 9 11 10 10 9 8 8 8 7 7 7 6 7 6 5 4 3 4 4 6 5 6 6 4 4 3 5 5 7 6 8 5 5 6 5 7 7 8 7 7 7
6 9 15 9 9 16 12 10 5 10 8 6 8 11 14 13 15 16 9 14 20 22 19 20 20 16 16 15 15 16 16 15 14 14 15 14 12 14 13 14 13 13 15 16 16 16 16 16 18 17 18 16 14 14 13 12 12 11 10 10 8 7 8 7 7 7 7 7 7 6 5 5 4 3 4 5 6 5 5 5 5 6 7 6 6 5 7 7 6 6 3 4 11 7 8 8 6
9 9 11 13 4 10 18 4 2 8 11 3 10 16 6 10 16 18 8 17 19 21 19 19 20 17 17 17 16 16 18 15 15 16 16 16 13 13 13 13 15 14 15 17 19 17 18 16 18 19 19 18 16 13 12 10 11 11 10 8 8 7 8 7 6 6 6 6 6 6 5 4 4 4 4 4 7 6 4 5 4 6 6 8 7 7 6 6 6 8 5 3 3 9 8 9 8
17 5 9 6 5 9 16 13 7 2 5 7 2 11 10 11 12 14 7 19 19 18 19 20 20 17 21 19 17 18 19 19 20 20 18 14 13 12 11 13 15 14 15 18 18 19 20 19 18 18 16 16 15 14 12 10 13 11 9 8 8 8 7 5 6 6 6 7 7 6 5 4 5 5 5 5 6 5 5 6 5 6 6 7 7 6 7 5 6 6 8 5 5 8 9 10 10
6 4 6 13 5 6 13 11 9 13 3 3 4 6 12 15 17 17 7 17 20 19 22 22 21 20 20 17 18 16 16 21 17 12 15 15 14 14 13 14 14 14 15 17 17 14 15 14 15 18 17 16 15 14 11 7 3 6 6 8 8 6 5 6 6 6 6 7 7 6 6 6 6 5 6 7 6 8 6 5 6 4 5 6 7 7 6 6 5 5 7 7 7 5 8 7 10
4 1 4 4 7 14 16 10 5 4 11 14 9 15 17 17 19 18 11 13 21 20 18 18 18 22 21 21 19 19 16 17 12 12 14 14 15 17 16 15 14 14 14 14 15 15 15 13 13 16 15 15 13 12 10 9 5 8 10 7 7 5 4 5 4 6 6 7 5 6 7 6 6 7 9 10 8 8 7 6 5 4 5 6 7 7 6 7 7 8 7 9 10 8 7 8 10
8 7 5 9 8 18 15 11 5 4 11 11 14 11 13 19 22 23 18 13 15 14 14 14 17 20 22 20 21 19 16 16 14 13 13 13 15 16 15 14 14 12 10 12 12 12 15 17 18 18 16 16 16 14 12 12 10 9 6 10 9 8 8 6 6 5 5 6 5 5 6 7 7 7 8 8 8 7 7 7 7 5 5 6 7 8 7 7 7 7 8 6 10 11 6 4 5
5 8 7 16 6 21 17 14 8 13 12 11 5 7 15 21 24 22 17 17 16 19 20 18 21 21 24 27 23 18 17 16 19 16 14 16 14 13 10 9 9 13 7 8 7 6 10 12 15 17 17 16 15 14 13 13 9 10 11 11 8 8 8 8 6 4 6 5 5 5 6 7 8 8 8 7 7 8 7 7 6 7 7 6 5 6 5 7 9 9 9 10 5 7 9 4 4
4 8 9 9 20 11 19 12 7 7 4 14 9 9 18 25 25 20 16 14 16 25 27 29 27 23 21 22 19 16 19 19 18 17 15 19 16 12 10 8 7 9 8 9 7 6 8 8 10 14 16 16 14 13 13 14 8 7 9 10 9 8 4 5 6 5 5 6 4 6 7 8 8 7 7 7 8 7 7 8 7 6 5 6 6 6 6 7 9 9 7 11 10 5 6 2 3
7 5 6 19 8 7 20 7 4 4 10 11 11 12 22 23 16 16 17 11 8 14 24 27 26 29 25 28 27 24 22 22 23 21 19 17 17 18 21 16 12 14 17 19 14 7 4 5 8 13 15 14 13 13 11 8 7 4 4 7 7 7 7 6 6 6 6 5 4 4 4 5 6 6 6 6 5 6 7 8 7 7 7 5 7 7 6 7 9 8 8 6 8 10 7 5 4
6 8 10 12 7 12 15 19 11 9 8 9 7 9 20 11 14 18 11 5 11 14 9 12 16 19 21 16 12 14 19 23 26 25 20 22 26 24 17 17 22 18 17 18 18 16 13 7 5 8 11 12 11 10 8 5 7 7 7 9 8 9 9 8 9 5 4 5 5 4 5 4 5 6 5 5 6 7 6 7 7 7 7 6 6 7 7 7 6 7 11 11 9 12 7 6 5
9 10 16 13 13 14 17 12 10 16 19 3 5 16 17 13 13 17 10 5 9 10 17 13 14 14 16 18 18 19 18 20 24 22 21 17 13 12 12 14 12 16 19 19 19 20 19 16 13 9 7 8 10 8 8 7 8 10 10 12 11 8 8 10 10 12 7 8 10 4 4 5 6 6 5 5 6 6 7 7 6 7 6 6 6 7 7 8 7 8 9 11 9 4 12 7 7
8 18 15 19 19 17 12 14 3 7 12 8 6 6 24 17 12 8 12 8 8 5 12 16 14 16 16 18 22 24 25 21 20 21 21 22 20 19 22 30 26 20 22 14 11 16 16 14 12 11 10 11 9 8 7 6 7 8 10 11 10 12 13 7 5 6 10 5 7 6 6 4 5 8 5 5 5 5 6 7 6 6 7 6 5 7 8 9 9 7 8 9 10 10 8 9 8
16 12 13 12 12 11 14 11 11 15 7 12 4 8 11 18 13 6 12 14 10 10 10 13 13 16 17 19 23 19 19 24 23 24 24 27 26 27 32 29 26 25 18 13 16 15 17 16 15 13 11 11 10 11 9 9 11 9 10 8 8 9 10 9 6 6 4 5 8 6 5 4 3 4 5 5 5 5 5 6 6 6 6 5 6 7 8 7 7 5 7 7 9 11 10 12 10
20 10 10 9 14 16 13 11 11 7 2 22 13 3 6 10 13 9 6 10 11 9 6 10 16 18 21 20 21 21 23 23 25 25 28 30 34 31 24 24 23 19 17 19 22 23 21 19 16 12 12 10 9 9 10 10 10 11 12 12 9 6 8 10 6 5 7 5 6 4 5 3 3 2 2 3 4 5 5 6 5 6 6 6 5 5 4 7 10 10 7 8 10 8 9 7 11
20 15 7 8 5 6 7 9 6 3 5 17 14 7 11 13 12 15 9 12 10 4 3 7 16 24 24 24 21 23 22 22 22 29 30 30 25 24 23 19 16 19 20 17 15 16 18 17 15 13 11 11 10 8 8 8 9 11 12 11 12 8 7 7 8 8 6 5 7 5 4 4 3 2 1 2 2 3 3 5 6 7 7 7 7 7 5 6 7 9 10 9 8 9 5 9 12
4 6 10 9 5 5 3 6 6 6 7 19 12 8 8 10 9 3 11 9 5 9 9 11 17 18 16 21 25 25 27 23 20 24 22 21 20 18 14 17 18 13 12 12 11 11 13 15 16 14 11 10 10 10 9 10 10 12 14 13 13 11 8 10 9 6 6 5 8 5 5 4 3 4 5 4 3 2 3 3 6 7 6 6 6 7 8 9 9 9 9 7 9 10 9 8 5
9 11 10 5 10 11 4 9 7 10 15 14 12 7 8 12 11 9 9 14 12 17 23 24 25 21 25 23 21 23 21 23 21 21 18 14 13 14 13 14 15 16 13 13 10 8 10 12 15 14 10 9 8 9 9 10 11 11 11 13 12 12 11 11 12 10 8 8 8 8 4 8 6 7 6 7 5 4 5 3 4 6 8 6 6 6 6 7 7 7 8 9 9 8 8 10 9
11 6 7 8 11 10 9 7 8 11 17 11 2 9 6 7 8 10 18 15 4 11 19 29 29 24 23 22 21 21 23 23 23 20 18 16 17 19 19 17 15 17 18 15 13 9 10 11 13 14 10 7 9 9 10 9 11 11 12 12 11 11 11 11 9 9 7 10 10 9 7 9 6 8 5 8 4 4 6 6 5 7 6 4 6 6 4 5 7 7 8 7 8 9 10 10 11
12 13 10 9 8 7 9 11 7 10 13 7 3 4 7 6 6 10 14 10 9 5 6 8 15 17 18 16 16 19 22 24 20 16 15 15 18 17 13 11 11 8 7 8 7 5 6 9 10 10 9 7 6 7 8 10 10 10 10 12 12 12 11 10 10 11 7 8 10 10 9 10 9 8 7 7 6 4 5 5 5 4 4 3 4 5 6 5 5 8 7 8 8 7 8 8 8
18 11 20 16 16 17 12 12 13 12 12 6 9 8 9 3 10 17 10 11 13 12 10 7 12 13 15 15 17 13 21 23 9 15 13 16 17 11 11 10 7 6 5 5 6 7 8 8 9 10 10 8 9 9 9 9 10 8 8 10 12 10 12 11 9 9 9 8 6 9 7 7 10 7 9 7 5 5 4 4 4 6 4 4 4 5 5 5 5 5 4 4 5 7 8 9 9
5 9 14 12 12 14 14 13 8 7 4 4 12 7 4 7 7 13 7 12 14 14 16 15 12 9 16 23 21 19 19 18 12 3 8 13 13 11 13 12 9 8 6 7 8 8 6 6 8 9 12 12 12 10 8 9 10 11 9 10 8 8 8 8 8 5 7 9 9 10 9 7 9 8 5 7 4 6 5 5 5 6 6 5 4 6 5 6 6 7 4 4 5 4 9 8 10
9 7 9 13 11 16 8 5 2 3 9 4 4 4 4 6 7 14 10 10 10 12 15 17 19 23 17 14 15 17 13 11 9 7 9 9 9 11 12 10 8 8 10 10 9 8 8 7 8 10 10 12 12 11 10 6 11 11 10 9 9 8 10 11 11 9 9 7 9 7 9 7 6 6 7 6 8 5 6 5 6 6 6 5 5 5 6 5 5 5 6 4 4 4 7 9 9
14 7 14 6 7 10 15 16 7 5 10 11 4 7 4 5 10 9 8 5 6 9 11 13 17 19 15 11 10 12 12 9 8 11 13 12 11 11 10 9 8 8 10 11 11 9 8 7 9 15 8 13 14 16 17 16 10 12 11 11 9 10 12 10 9 10 7 9 6 7 6 8 6 6 7 5 7 6 6 6 7 5 5 5 6 5 6 6 6 6 4 4 3 5 8 5 5
13 13 7 10 10 7 9 13 5 6 8 8 3 3 5 7 7 5 11 12 8 6 14 12 15 19 12 9 12 11 10 9 7 8 10 11 11 10 11 12 11 11 10 10 12 11 9 8 12 13 13 15 17 22 18 14 13 11 11 10 7 4 5 8 7 8 8 10 9 8 8 7 5 5 6 6 6 6 5 6 6 5 4 6 5 6 5 6 6 7 3 6 3 6 10 8 5
3 6 6 3 13 8 7 15 11 15 6 6 5 3 10 8 5 4 9 10 9 7 9 13 13 11 10 9 10 10 10 9 10 10 11 12 11 9 11 12 13 12 11 11 11 12 11 11 16 18 19 16 20 19 17 16 14 15 14 13 9 8 3 8 8 10 8 9 9 9 8 6 7 6 5 4 6 5 5 6 5 5 4 4 6 4 5 5 5 5 5 6 3 6 9 8 5
4 7 7 6 7 7 10 4 6 11 16 12 14 10 12 5 6 6 8 5 8 9 7 10 14 12 13 9 10 11 13 12 11 13 14 14 13 11 11 12 13 12 12 12 12 12 11 13 15 14 15 17 17 15 15 11 12 12 15 13 12 10 8 5 4 5 7 7 7 8 8 8 7 6 6 6 5 5 5 6 5 4 4 4 5 4 3 5 6 4 4 5 3 5 8 4 7
10 9 5 2 6 9 5 12 5 6 11 13 13 14 9 8 9 8 7 6 12 13 13 12 13 13 15 18 14 14 14 12 12 13 13 15 13 12 12 12 13 13 12 13 11 12 10 13 15 14 13 14 15 13 12 10 9 12 15 12 11 9 8 7 7 9 9 8 8 9 8 7 8 6 7 7 6 4 5 6 6 3 2 3 3 4 3 5 6 5 3 3 5 4 6 4 5
Wind_Speed
1 1 2 1 3 2 1 2 2 3 2 6 2 2 6 1 4 5 8 5 4 1 3 4 2 1 1 3 6 8 8 3 2 9 5 1 5 11 13 13 12 12 12 11 10 10 12 15 16 17 17 19 20 19 18 19 19 18 19 19 19 19 19 19 19 17 18 17 17 17 17 17 18 18 18 18 18 19 18 19 19 18 18 18 17 17 17 17 17 17 18 18 17 17 17 16 17
2 1 1 0 1 1 1 2 2 1 2 4 8 1 6 2 1 7 7 2 2 1 1 7 9 12 14 14 10 3 7 7 2 1 4 3 10 9 12 14 13 14 12 11 10 10 10 13 17 17 19 20 19 19 19 19 19 20 20 19 18 19 19 19 18 17 17 17 17 17 17 17 17 17 17 18 18 16 15 17 18 18 17 18 17 16 16 17 16 17 17 17 17 16 16 16 16
1 0 2 3 3 2 0 2 1 0 3 8 6 7 2 1 7 9 5 1 4 2 3 5 4 4 3 1 4 3 1 2 8 5 6 6 13 8 10 12 11 13 13 10 11 11 9 11 16 17 20 19 20 20 18 19 19 19 19 18 18 19 18 19 18 17 16 16 16 16 16 16 15 16 17 16 14 13 15 15 18 18 18 17 17 16 16 16 16 17 16 16 16 15 15 15 15
2 1 2 2 0 3 1 2 4 6 4 6 6 7 6 3 9 5 6 5 5 6 3 1 3 3 4 5 5 7 6 1 3 6 7 7 4 11 12 12 13 11 10 9 10 10 9 13 16 18 20 20 20 19 18 19 19 19 18 17 17 17 17 17 17 17 16 16 16 16 16 15 14 14 15 15 14 13 14 14 16 17 17 16 16 16 15 16 16 15 15 15 15 15 15 14 14
1 1 2 3 3 1 1 2 2 3 8 5 5 4 3 4 7 6 5 7 6 9 4 4 4 2 3 5 2 2 3 4 4 1 3 5 10 10 11 12 12 12 11 11 10 10 11 19 17 17 18 21 20 20 18 19 18 17 18 17 17 17 16 16 16 16 16 16 16 16 15 14 14 14 14 15 13 12 12 12 12 15 16 16 15 14 14 15 15 14 15 15 15 15 14 14 14
4 2 3 2 1 1 3 0 2 7 6 2 2 5 3 5 5 4 7 8 5 1 1 3 3 4 3 2 0 4 8 6 5 3 4 8 12 12 12 11 12 12 11 10 10 9 10 17 16 17 18 20 19 19 18 18 18 17 17 17 17 17 17 16 16 16 16 15 15 16 15 14 13 14 14 13 13 14 15 15 16 18 17 16 15 14 15 15 13 14 14 14 14 14 14 13 12
0 3 3 2 1 2 3 2 7 6 8 2 5 8 12 11 7 6 6 5 2 4 3 1 8 9 7 2 5 2 1 4 6 5 4 12 13 12 12 11 12 13 12 10 9 9 12 16 16 16 17 19 19 19 18 18 17 17 17 17 17 17 17 16 16 16 16 15 15 15 15 15 15 15 15 15 14 14 13 15 17 17 17 15 14 14 14 13 14 14 14 13 13 12 12 12 11
1 2 0 1 1 1 1 2 7 3 6 6 4 9 13 12 10 4 8 0 2 0 1 1 4 4 1 2 4 2 5 3 9 11 13 13 12 11 10 12 13 13 12 11 9 8 15 16 16 16 17 18 19 18 18 17 17 17 17 16 16 16 16 16 16 15 14 15 15 15 15 14 15 15 14 15 15 14 14 15 16 16 15 15 14 13 12 13 14 13 13 12 11 11 11 11 11
3 3 0 4 0 1 1 5 6 3 7 5 10 9 14 14 12 7 14 3 2 2 5 5 2 6 1 8 4 2 4 9 12 16 14 13 12 12 9 12 14 12 12 10 9 9 10 15 15 16 17 17 18 18 17 17 16 16 16 16 16 14 15 15 16 15 13 13 13 14 14 15 14 15 14 15 15 15 14 14 13 14 15 15 15 13 12 12 13 12 11 10 10 10 11 11 11
2 1 1 2 2 2 2 7 1 5 3 3 6 12 11 8 9 5 10 13 5 5 5 2 1 6 8 10 6 2 3 10 13 12 11 11 12 10 11 12 14 15 12 10 9 9 9 16 15 14 15 16 16 16 16 15 15 15 15 15 15 14 14 14 13 14 13 13 13 13 13 13 13 14 14 15 15 14 14 14 13 15 15 16 15 13 12 12 11 11 10 9 9 9 10 10 11
0 3 1 2 1 1 5 6 5 7 6 5 9 13 14 14 9 10 7 10 1 8 5 13 6 10 5 6 3 3 7 10 15 13 10 10 10 10 10 10 12 14 12 11 10 9 9 10 17 14 14 15 14 14 14 14 14 14 14 14 14 15 15 14 14 15 13 13 13 13 12 13 13 14 14 14 14 14 13 13 13 13 15 15 14 13 11 11 10 10 9 8 8 8 9 10 11
1 1 1 3 2 6 5 2 5 9 8 5 7 10 4 8 8 4 5 3 3 1 6 5 7 10 10 5 5 7 7 8 10 12 10 9 9 10 10 8 11 10 12 12 10 8 8 9 9 14 15 14 14 14 14 14 14 14 14 14 14 14 14 13 13 13 13 13 11 11 11 12 12 13 13 13 13 13 12 12 12 13 14 15 15 14 11 9 9 9 8 7 6 8 9 9 11
2 1 5 3 3 1 3 2 6 5 6 6 5 4 3 8 8 7 5 4 5 6 3 3 16 3 6 6 5 7 10 9 8 11 12 9 9 8 9 9 10 11 11 11 10 9 9 7 8 8 12 17 15 14 14 14 14 14 14 14 13 15 15 15 15 14 12 12 11 11 11 11 12 12 12 12 12 12 12 12 11 12 13 13 14 13 12 9 8 8 7 6 6 7 8 9 10
3 5 4 2 0 2 1 4 3 5 6 8 2 7 9 3 5 6 6 5 3 3 1 11 6 9 9 7 8 8 9 10 10 10 9 8 7 8 9 9 10 10 10 10 10 10 8 7 7 7 10 10 9 13 15 15 15 14 13 13 14 14 13 14 13 12 12 12 12 14 12 12 12 12 12 11 11 11 11 11 11 11 11 12 12 13 12 11 8 6 6 6 6 7 8 10 10
2 1 2 1 2 0 2 3 3 2 7 5 4 7 11 5 4 5 5 7 2 1 6 3 6 8 7 12 7 11 11 13 12 10 9 8 7 7 9 9 10 10 9 9 9 10 9 8 7 7 9 7 8 6 7 11 16 16 14 15 14 12 13 14 13 12 12 12 14 13 12 13 12 12 12 12 11 11 11 10 11 10 10 10 11 11 10 11 10 7 6 6 6 7 8 9 9
2 2 1 0 3 3 6 2 2 1 9 3 5 7 7 9 4 1 2 4 4 3 2 3 2 1 7 11 13 17 16 14 12 12 11 10 8 8 10 10 9 9 8 9 9 8 8 8 7 7 7 7 6 6 7 8 13 16 14 14 15 14 15 14 12 12 14 13 14 14 13 10 10 10 13 9 11 11 10 7 10 10 9 9 9 9 10 9 9 8 5 5 5 5 7 7 7
1 1 0 1 5 3 4 4 4 3 6 5 6 7 7 11 5 1 5 5 12 1 3 2 1 1 16 3 12 15 14 12 12 14 14 11 8 8 8 8 8 7 6 7 7 8 8 8 9 7 8 8 8 7 7 7 9 14 12 14 14 14 14 14 13 14 12 12 11 11 10 6 5 5 6 5 9 5 7 9 9 9 8 8 9 8 7 7 8 8 6 3 3 5 5 5 6
2 2 3 3 6 4 5 5 4 2 4 7 10 5 8 9 6 4 5 10 8 7 7 3 7 7 8 11 13 14 15 15 14 16 12 10 8 10 11 9 8 9 8 7 6 7 7 8 9 9 8 9 8 7 6 5 6 9 5 6 6 9 11 11 9 7 9 7 12 8 5 4 4 4 4 6 4 5 6 9 9 8 8 9 9 7 6 6 8 8 6 4 3 4 5 3 4
3 1 3 8 4 6 4 2 4 3 7 8 9 7 4 5 2 1 3 2 2 9 6 5 11 10 12 12 14 15 15 14 14 14 13 12 10 15 12 10 10 10 9 8 6 7 7 7 8 9 9 9 9 8 6 6 7 5 5 5 6 9 8 8 7 8 6 6 5 5 5 4 4 4 4 4 3 7 6 9 9 8 8 9 9 8 6 6 8 8 7 6 5 5 3 2 3
5 4 4 9 5 3 4 4 6 4 8 12 11 7 5 6 2 1 1 2 3 10 8 6 10 15 13 12 13 15 16 14 13 12 9 11 12 14 14 12 11 9 10 8 8 6 7 7 8 8 10 9 8 6 6 6 5 5 5 4 5 5 6 6 7 7 6 5 5 5 5 4 3 2 7 11 8 4 5 7 8 8 8 9 9 5 5 6 9 9 9 7 4 2 2 2 5
2 4 5 6 2 5 7 2 6 8 7 5 7 8 9 7 3 2 5 6 1 3 9 15 14 17 17 16 14 12 13 12 8 10 8 8 5 4 7 8 9 7 7 7 7 7 7 7 8 8 8 8 8 6 7 6 5 5 4 5 5 5 6 6 6 6 5 5 4 4 4 4 3 3 3 3 3 3 3 3 3 2 3 4 5 4 2 2 3 4 3 3 1 1 2 2 4
2 7 8 6 1 5 10 6 8 8 9 6 8 7 9 1 0 3 6 5 6 8 11 10 19 18 19 17 14 10 10 12 14 7 7 10 7 4 2 4 4 5 6 8 8 8 7 7 7 7 8 8 7 6 6 7 7 5 5 5 5 5 6 6 6 5 5 4 4 4 4 5 3 4 3 3 3 3 4 3 2 3 3 2 2 4 2 2 3 3 2 2 1 1 1 2 3
4 4 5 6 5 6 5 5 8 5 6 8 5 5 4 2 1 3 6 6 4 1 3 9 16 17 15 17 15 14 16 17 16 16 12 11 7 4 4 3 6 8 6 7 6 6 7 7 7 7 7 7 7 6 5 5 5 5 5 5 6 5 5 6 6 5 5 5 4 4 5 4 4 4 4 2 3 3 3 2 2 2 3 1 1 3 3 3 2 2 2 1 1 2 2 3 2
4 7 3 7 3 7 9 8 10 9 7 12 9 5 6 9 6 3 4 8 1 4 9 6 7 12 16 15 12 14 14 10 6 10 16 16 18 14 7 6 5 3 6 8 6 6 7 9 9 8 6 6 6 6 6 5 5 6 6 7 5 7 6 6 6 5 5 5 4 4 4 4 4 4 3 3 3 3 3 2 2 2 2 1 0 1 4 3 3 2 1 2 3 3 3 2 2
5 7 4 5 5 6 10 8 8 8 9 11 7 7 14 10 4 2 6 7 5 10 12 10 12 14 14 13 15 15 14 14 9 9 8 7 11 17 8 4 6 5 7 8 7 8 9 8 8 8 7 7 6 6 6 5 5 5 5 5 6 7 6 6 6 5 5 4 4 4 4 5 3 3 4 3 3 3 2 2 2 2 2 1 1 2 3 4 3 2 1 2 3 3 2 3 4
5 10 6 5 6 7 6 5 7 10 7 5 6 10 12 9 4 2 2 1 3 11 13 14 13 15 14 13 15 14 14 14 13 13 13 9 8 13 12 9 8 9 8 9 9 7 9 10 10 9 8 7 6 6 5 6 6 5 5 5 5 7 5 5 5 5 5 5 4 4 4 5 5 5 4 3 4 3 2 1 2 1 2 1 1 2 2 3 3 1 1 2 3 2 3 3 4
3 4 4 7 8 6 6 5 7 6 4 3 4 9 10 4 1 3 1 5 8 10 12 13 15 15 13 12 11 11 14 13 12 11 8 8 10 9 13 11 11 9 9 10 9 8 8 10 9 8 7 7 6 6 5 6 5 5 5 5 5 6 5 5 5 5 4 4 4 4 3 4 4 4 5 4 3 3 2 2 2 1 1 0 2 2 2 3 3 2 1 2 2 3 3 3 5
3 5 4 5 6 6 7 6 9 4 5 5 8 10 11 4 1 4 6 7 10 13 11 12 13 12 11 14 12 9 9 10 9 9 14 12 11 10 9 10 10 8 9 10 9 9 10 10 10 10 8 6 6 6 5 5 5 5 5 5 5 5 6 5 5 5 5 4 3 4 4 4 4 4 4 4 4 4 3 3 2 1 1 1 2 2 3 3 3 2 2 2 3 2 3 4 5
4 0 6 7 7 7 3 5 6 4 4 3 6 4 7 2 3 5 6 10 11 13 13 13 12 9 11 12 9 9 9 10 9 11 14 14 13 10 13 8 9 9 5 8 10 11 11 11 11 11 9 7 7 7 6 5 5 5 5 5 5 6 6 5 5 5 4 4 3 4 3 3 3 4 4 4 4 4 4 3 2 2 2 2 2 3 4 2 3 3 3 2 3 4 3 5 5
1 0 1 7 6 9 7 3 5 3 3 3 6 3 7 8 9 8 3 10 9 10 12 13 10 9 10 9 8 8 8 10 11 12 11 10 11 9 10 8 7 7 8 7 9 11 8 7 8 9 10 9 8 7 5 5 5 5 5 5 5 6 5 5 5 4 4 4 3 3 3 2 3 2 4 3 3 3 3 3 3 2 2 2 3 4 3 3 3 3 1 3 4 3 4 4 5
2 4 0 4 3 6 3 0 2 2 3 5 5 4 8 9 10 9 3 11 15 13 12 13 11 9 10 8 7 8 9 9 12 10 8 8 7 5 7 6 7 7 8 8 10 11 10 9 8 8 11 10 9 7 7 7 6 6 6 5 5 5 5 5 4 4 4 4 4 4 3 3 2 2 2 4 3 4 3 2 2 2 2 2 3 2 3 2 3 3 2 4 4 4 4 4 4
1 3 7 4 5 7 7 6 3 4 2 4 5 4 8 8 9 9 6 9 14 14 13 13 12 9 10 8 8 9 9 8 8 7 8 8 7 6 6 7 7 8 9 10 9 9 9 9 9 10 11 11 9 9 8 7 7 6 5 5 4 4 4 4 4 4 4 4 4 4 3 2 3 2 2 3 3 2 3 2 2 2 3 2 3 3 3 3 3 3 1 2 6 4 4 4 3
3 3 6 6 1 5 8 1 1 7 3 1 6 6 3 5 8 10 5 11 12 13 12 13 13 11 10 9 8 8 10 9 9 9 8 8 7 7 7 7 8 8 8 11 12 11 11 11 11 10 12 12 10 9 7 6 6 6 6 5 5 4 4 4 3 4 4 4 3 4 3 2 3 2 2 3 4 4 3 2 2 3 3 4 3 3 2 2 3 4 2 1 2 4 4 5 4
5 3 2 2 2 4 5 6 2 0 3 3 1 3 6 6 8 7 5 10 12 11 12 13 12 10 13 11 9 9 11 10 10 9 10 8 6 7 6 8 8 8 8 10 11 12 12 10 8 9 10 10 9 8 7 5 4 5 4 4 5 5 3 3 4 4 4 4 4 4 3 3 3 2 2 3 2 1 3 3 2 2 3 4 3 3 2 2 2 1 3 2 3 4 4 5 6
2 0 2 6 2 4 8 3 4 8 1 1 2 3 8 10 10 11 3 10 11 12 13 14 13 10 12 9 9 10 10 14 8 5 8 7 7 8 7 7 7 7 6 8 8 7 8 7 8 8 9 10 9 9 7 5 3 2 2 5 5 4 3 3 4 4 4 4 4 4 3 4 3 3 3 4 2 4 4 3 3 2 2 3 4 4 3 3 2 1 3 4 4 3 4 4 5
2 1 1 2 4 7 7 3 2 2 6 7 5 7 10 10 11 11 2 9 11 11 10 10 11 11 10 9 9 9 9 12 7 7 7 5 5 7 6 5 5 4 3 5 5 4 6 8 7 7 8 9 8 7 6 5 3 4 5 4 4 3 3 3 3 4 4 4 3 4 3 4 3 4 5 5 5 4 4 4 3 2 3 3 4 4 3 4 4 4 3 5 6 5 4 4 5
3 2 2 5 5 10 8 5 3 3 5 5 8 7 6 10 13 13 5 8 10 9 8 8 10 11 12 11 11 10 10 10 8 8 7 6 7 5 3 2 1 2 3 3 3 3 5 8 10 10 7 9 9 8 6 6 5 4 3 5 5 4 4 3 3 3 3 3 3 3 3 4 3 3 5 5 5 4 4 4 4 3 3 3 4 4 4 4 4 3 4 3 6 6 3 3 3
3 4 4 8 3 11 9 6 4 8 2 6 4 4 9 12 15 13 4 12 11 13 12 11 13 13 13 15 15 11 9 8 12 10 9 7 8 7 4 2 2 4 3 4 3 1 2 4 5 6 7 7 8 8 7 6 4 5 3 3 4 5 5 4 3 2 3 3 3 3 4 4 4 4 4 3 3 4 4 4 4 4 4 4 3 2 2 3 5 4 4 5 2 4 3 3 2
1 3 4 5 9 4 10 4 4 3 2 8 6 6 11 14 16 12 7 9 9 15 17 18 17 15 13 13 11 10 11 12 12 11 9 8 9 8 6 5 4 5 5 3 2 2 2 3 3 4 6 7 7 7 7 6 3 3 3 3 5 3 2 3 3 3 3 3 3 4 4 5 5 4 4 4 4 3 4 4 4 4 3 4 4 3 3 4 5 4 3 6 5 3 2 0 1
3 1 2 9 2 3 9 3 3 2 1 5 7 7 11 12 10 11 10 7 4 10 16 18 17 18 16 18 16 14 15 14 16 14 12 11 11 12 13 10 8 8 10 12 10 6 3 0 1 3 5 5 6 5 5 2 3 3 3 4 4 4 3 3 3 4 4 4 3 3 3 3 4 4 4 4 3 4 4 5 4 4 4 3 5 4 3 4 5 4 3 3 5 5 1 2 1
3 5 5 6 3 5 7 7 3 4 4 5 4 5 8 6 8 9 4 3 7 9 6 5 8 12 11 7 8 8 13 15 17 17 12 12 10 8 8 8 6 5 10 8 10 9 7 6 4 4 5 5 4 5 5 3 3 5 5 5 5 5 5 4 5 3 2 2 2 2 2 3 3 3 3 3 3 4 3 4 4 4 4 4 4 4 4 4 4 5 6 5 5 6 4 2 2
4 6 10 8 8 8 8 7 5 5 7 1 1 5 6 6 8 10 5 1 5 4 11 9 9 8 10 12 11 11 11 12 16 14 12 9 8 7 6 1 7 9 11 8 6 11 12 10 8 6 4 4 5 5 5 4 5 6 5 6 5 4 4 5 5 6 4 4 5 1 2 3 3 3 3 3 4 4 4 4 3 4 4 4 4 4 4 4 4 5 5 5 4 3 6 4 2
4 7 10 13 12 10 7 9 0 3 3 2 2 2 7 8 7 5 7 4 3 1 7 10 8 8 10 11 14 14 15 14 12 13 12 14 12 12 15 19 17 13 12 9 6 7 7 7 7 7 6 5 5 5 5 3 4 5 5 5 5 5 6 2 2 4 6 3 4 3 3 2 3 4 3 3 3 3 4 3 4 4 4 3 3 4 5 5 5 4 5 5 5 4 3 4 4
5 6 9 8 7 6 8 7 7 7 2 3 2 3 3 7 5 3 7 8 6 5 3 4 8 11 11 13 14 13 13 14 15 16 14 14 14 17 20 19 15 14 10 7 9 9 9 10 10 9 6 6 6 6 5 3 6 5 5 5 5 5 6 5 4 4 3 3 5 4 3 2 2 3 3 3 3 3 3 3 3 3 4 3 3 4 5 4 4 3 4 5 5 5 5 6 5
7 6 8 6 8 10 8 6 6 3 1 10 4 1 0 3 4 5 4 6 6 3 3 6 9 12 14 13 11 13 14 15 17 15 17 15 16 15 13 15 15 11 8 9 11 11 12 11 10 8 7 6 6 5 5 3 4 5 5 6 5 4 5 5 4 3 4 3 4 3 3 2 1 1 2 2 2 3 3 4 3 4 4 4 3 3 3 4 6 5 4 5 6 5 5 4 5
12 8 3 3 2 3 4 5 4 1 0 8 7 2 2 5 5 7 4 8 6 3 1 4 9 16 16 12 14 15 14 13 14 18 18 18 16 15 15 11 9 10 9 8 8 5 5 7 8 8 7 7 6 6 5 4 4 6 6 5 7 4 3 3 4 4 3 3 4 3 2 2 2 1 0 1 2 2 2 2 4 5 5 5 4 5 3 4 4 5 5 5 5 6 3 5 7
1 3 3 3 1 1 1 3 3 3 1 9 7 4 4 3 3 1 5 2 3 3 2 3 9 13 10 12 14 14 13 15 11 15 15 14 12 11 7 9 9 7 6 6 5 3 2 4 7 8 7 6 6 7 6 6 5 6 7 7 7 6 5 6 5 3 3 3 5 3 3 2 1 2 2 2 1 1 2 2 4 4 4 3 4 4 5 6 5 5 5 4 5 6 5 5 3
3 1 3 1 5 5 1 3 3 2 5 8 8 4 6 4 3 4 4 5 7 10 9 13 16 13 14 13 13 13 11 13 13 13 12 9 5 4 5 8 9 8 5 6 5 4 4 4 6 7 5 6 5 6 6 6 6 6 6 7 7 7 7 6 6 5 4 5 5 5 3 4 3 3 3 3 2 1 2 2 2 3 3 3 3 4 3 4 5 4 5 5 5 4 4 5 5
6 3 3 4 3 3 2 2 1 3 5 4 1 4 3 3 2 5 11 8 1 7 6 12 17 14 15 14 13 12 13 15 14 12 11 10 10 11 11 9 6 5 5 5 4 4 4 4 7 8 5 4 6 6 7 6 7 7 7 8 7 7 7 7 6 6 4 6 5 5 5 6 5 5 3 5 3 3 3 3 3 5 3 3 3 2 2 3 4 4 5 4 5 6 6 6 6
7 7 4 4 1 1 2 4 1 4 6 5 2 1 0 1 2 4 8 5 3 2 3 1 4 8 11 9 9 10 11 13 9 6 5 8 10 9 7 3 2 1 0 1 2 3 3 4 5 7 5 4 4 5 6 7 7 7 7 7 7 7 7 7 6 6 5 5 6 6 6 6 6 5 5 4 4 2 2 2 3 3 2 2 3 3 3 3 3 5 4 5 5 4 5 5 5
9 5 10 8 7 4 3 4 4 5 6 2 4 2 2 1 2 9 4 4 5 6 4 5 5 7 10 9 10 7 8 11 4 2 1 3 7 6 6 6 5 3 2 2 2 2 3 4 5 6 7 6 6 6 6 7 6 6 5 6 7 6 7 6 6 5 6 5 4 6 4 5 6 4 6 4 3 4 3 3 3 3 3 3 3 3 3 3 3 3 2 3 3 4 5 5 4
1 4 6 6 4 6 4 5 3 2 1 1 5 0 1 2 4 7 3 5 7 7 8 9 8 3 7 9 12 9 8 10 8 2 4 6 5 6 7 7 6 4 3 4 4 4 4 4 5 6 8 8 8 6 6 6 7 7 6 6 5 5 5 5 5 3 4 5 5 6 6 4 5 5 3 4 3 4 4 3 2 3 3 2 2 3 3 4 4 4 3 3 3 2 5 5 5
2 3 3 5 5 8 3 2 0 1 4 0 0 1 2 3 4 6 6 4 6 6 8 9 11 11 7 5 6 10 8 7 5 4 6 6 6 7 7 7 5 4 5 5 5 4 4 5 5 4 2 4 7 7 7 4 6 7 7 6 6 5 6 7 7 6 5 4 5 4 6 4 4 4 4 3 4 3 4 3 4 3 4 3 2 2 3 3 3 3 3 3 3 3 5 6 5
6 2 7 2 4 5 6 5 2 2 3 2 1 3 1 1 1 4 5 1 1 1 4 8 11 9 7 3 4 6 7 5 4 6 8 8 7 7 7 6 4 5 6 6 6 5 4 4 6 8 2 5 4 10 9 7 2 7 7 7 6 7 7 6 6 6 4 5 3 3 3 5 4 3 3 2 3 4 4 4 4 3 3 3 3 2 3 3 4 3 3 2 1 3 4 3 3
6 5 3 2 1 1 3 4 0 0 1 1 0 1 2 3 2 1 5 4 3 2 1 6 9 12 8 1 5 5 6 6 4 6 7 7 7 6 7 6 5 5 5 5 6 6 6 5 7 7 8 6 7 10 9 7 4 4 6 6 5 3 3 5 4 5 4 5 5 4 4 4 3 3 3 3 3 3 3 4 4 4 3 3 2 3 3 3 3 4 2 2 1 2 4 4 2
2 3 2 1 5 3 2 4 4 6 2 2 2 1 2 2 1 2 3 3 1 1 3 2 6 8 6 6 4 5 6 6 6 7 7 8 7 6 7 6 6 5 5 4 5 6 7 7 8 9 10 8 7 8 7 8 5 7 7 6 5 5 2 1 5 4 4 4 5 5 5 4 5 3 3 3 3 3 3 4 3 3 3 3 3 1 2 3 3 3 3 4 1 2 4 4 2
1 2 2 1 2 2 4 1 1 3 5 5 5 1 4 2 2 4 3 1 3 3 1 6 8 6 5 6 6 6 8 8 7 8 9 9 8 7 7 7 6 5 4 4 4 6 7 8 9 9 9 9 8 6 8 7 7 7 8 8 7 6 6 3 3 4 4 4 4 4 4 5 4 4 4 4 4 3 3 4 4 3 3 3 3 2 1 3 3 3 2 3 3 2 4 2 4
5 4 2 1 2 4 2 5 1 2 3 3 4 4 3 3 3 4 0 3 2 7 6 5 7 7 6 7 9 9 9 7 8 8 9 9 8 8 8 6 6 6 5 6 5 6 7 9 9 9 7 7 8 6 7 6 5 8 10 8 7 5 5 5 5 6 5 5 5 4 4 4 4 3 4 4 4 3 3 4 4 3 2 2 2 3 2 2 4 3 2 2 3 3 4 3 3
Wind_Direction
153 176 203 118 71 95 61 4 143 298 77 245 301 197 254 251 265 323 264 307 339 274 305 338 166 139 228 193 141 99 30 144 205 143 215 198 116 112 120 125 128 129 135 136 138 136 133 136 138 136 133 132 132 130 130 128 124 123 123 122 122 121 121 121 119 118 121 122 124 124 123 122 123 124 124 124 121 120 117 114 113 113 112 109 108 105 106 102 102 106 108 108 106 105 103 103 105
206 246 54 70 81 69 239 124 95 334 28 319 243 137 245 261 139 222 245 187 214 194 79 60 56 77 79 91 125 160 35 19 309 121 88 93 101 101 129 132 138 136 136 138 137 133 135 140 140 138 136 135 134 134 133 131 128 127 128 126 123 124 124 123 121 122 123 124 125 125 126 123 121 119 117 116 118 120 114 113 113 112 112 111 111 110 106 104 105 108 109 108 104 103 102 102 97
251 101 26 35 26 80 96 43 256 101 180 246 267 213 303 296 223 241 242 171 245 217 194 103 76 41 82 70 17 25 220 46 78 84 98 134 110 130 129 129 135 135 135 136 135 134 136 142 142 141 137 137 139 137 135 135 132 131 130 127 126 124 124 123 124 124 125 125 126 125 123 122 119 121 121 123 123 113 110 114 116 115 112 112 113 112 108 104 107 109 109 106 104 101 98 97 99
82 37 131 73 248 22 75 29 91 145 210 225 302 246 219 212 260 270 246 235 234 238 222 73 48 291 133 73 117 76 73 36 10 129 131 158 121 129 133 131 136 133 130 132 135 135 138 145 145 142 139 140 141 140 138 137 135 133 131 130 127 125 125 125 125 126 126 126 125 124 124 118 116 113 111 111 111 112 112 116 119 116 115 115 114 112 108 106 107 108 107 107 103 99 96 96 95
103 349 88 88 110 356 101 197 157 117 237 181 214 271 219 230 250 273 314 309 280 220 194 128 92 332 103 116 188 134 180 93 152 241 83 82 118 129 133 135 136 132 131 134 136 138 143 146 146 142 142 143 143 142 140 139 136 133 132 130 129 127 125 125 125 125 126 126 125 124 122 120 118 117 115 116 116 113 112 107 108 116 113 111 110 108 108 107 106 105 108 103 100 96 93 91 86
54 52 353 87 68 193 50 37 280 233 234 159 266 262 218 223 270 335 307 307 319 84 306 140 170 180 59 16 114 126 140 151 159 52 120 134 131 136 136 137 133 133 133 136 141 141 144 148 146 144 144 144 144 142 142 140 136 135 132 131 129 127 128 127 126 127 126 126 125 125 124 124 122 121 120 119 111 104 102 105 105 107 111 111 112 112 110 105 102 103 98 95 90 85 82 80 78
225 48 354 33 6 61 161 183 244 243 264 206 251 288 280 288 274 320 311 338 336 33 331 301 130 116 93 99 51 52 224 121 123 136 139 137 133 137 140 136 134 134 136 139 140 140 147 145 145 145 144 145 145 144 142 140 137 135 132 131 129 130 130 128 126 125 126 126 126 127 127 128 123 115 112 110 109 111 111 109 109 112 114 116 116 116 112 103 99 96 93 91 88 85 82 79 75
87 107 272 104 232 50 234 238 255 170 276 197 245 265 285 282 289 282 279 113 279 92 334 217 305 88 5 285 122 320 36 30 103 106 122 132 133 135 135 136 133 135 139 140 142 144 146 141 146 147 146 145 145 144 144 141 138 134 132 129 129 130 130 129 125 124 126 127 127 125 122 116 110 109 107 109 109 110 110 112 116 116 119 119 118 115 108 102 102 100 97 94 91 88 83 77 74
355 86 325 77 304 23 6 255 262 239 267 285 276 260 270 273 287 292 287 193 289 179 178 206 271 70 238 76 73 41 56 95 105 121 127 132 137 141 140 141 137 140 141 142 140 141 139 147 149 148 146 144 144 145 144 141 136 132 130 128 128 126 129 130 127 123 123 125 124 120 115 113 115 115 114 114 113 112 112 112 114 117 116 116 116 114 109 107 106 104 102 97 92 86 82 78 71
32 84 234 146 129 238 331 280 266 248 251 236 265 274 269 277 280 254 267 298 232 180 183 36 77 126 124 102 110 48 107 119 119 116 129 137 139 144 144 142 139 138 143 140 140 137 144 150 147 145 143 144 145 146 143 138 134 132 129 127 128 128 130 128 123 122 121 121 118 118 119 120 121 120 120 120 118 115 114 113 115 121 123 122 124 122 119 114 109 105 100 94 87 83 76 70 69
76 6 154 81 39 299 237 277 274 299 271 290 284 260 261 269 257 271 238 248 132 153 117 106 80 128 115 112 64 63 121 134 131 138 144 141 141 143 137 137 137 140 141 141 135 136 144 146 147 145 146 146 143 141 135 135 133 129 128 130 131 129 126 122 124 124 121 121 122 123 123 121 120 121 122 121 118 119 117 115 114 121 126 127 127 124 121 119 112 106 101 93 90 84 79 71 67
59 107 41 108 183 175 237 221 272 277 287 283 270 279 278 262 271 249 258 226 153 130 166 193 155 130 100 120 119 136 139 146 138 137 140 140 142 144 137 137 136 137 137 135 135 137 134 144 146 148 145 141 140 138 136 133 130 130 132 133 129 126 124 124 122 122 124 124 122 119 120 119 121 121 120 118 119 118 117 117 117 121 126 128 128 126 125 120 114 106 97 90 80 77 73 68 66
126 114 88 96 228 145 235 255 267 296 305 285 233 287 295 279 257 215 219 189 115 164 229 242 142 154 119 140 123 143 153 166 148 140 142 150 146 143 134 135 133 131 134 133 130 127 133 138 143 144 145 142 142 138 136 130 130 133 132 129 127 128 128 127 127 126 124 122 121 121 116 115 116 117 118 119 117 117 117 119 124 125 128 130 129 127 126 121 113 107 99 85 68 59 61 60 61
121 178 118 215 103 211 188 254 277 310 293 257 305 295 309 277 270 194 125 94 166 175 242 130 128 113 99 118 147 163 175 165 146 142 137 135 142 140 136 128 124 126 128 129 129 129 131 131 133 137 142 141 143 141 136 130 133 131 128 128 127 128 131 129 127 124 122 120 116 117 122 119 115 115 114 112 112 112 113 117 120 127 130 132 132 129 130 129 121 106 90 77 55 48 47 53 54
186 190 84 127 303 17 247 191 211 173 276 285 282 339 344 317 1 53 94 115 20 139 115 36 151 108 181 160 164 179 173 163 148 138 125 128 132 131 125 122 121 122 123 123 126 133 133 130 129 132 135 133 129 126 132 132 131 132 130 131 128 127 129 130 128 126 124 120 120 122 122 118 115 114 112 111 109 110 112 112 117 119 126 135 133 131 132 131 123 101 78 62 51 41 43 49 51
180 85 87 125 254 195 268 207 236 288 259 6 290 329 347 317 347 89 257 188 135 112 75 159 288 171 171 195 176 159 160 155 147 132 123 121 126 123 119 120 118 117 119 123 130 132 135 132 128 126 129 127 121 119 125 128 133 134 132 128 131 133 134 134 128 127 126 123 122 120 116 115 115 116 113 110 109 107 109 112 118 117 124 126 128 129 127 123 119 104 82 49 48 40 43 45 49
77 80 310 76 270 182 256 185 151 230 262 284 310 2 356 320 305 48 25 72 119 66 67 15 260 163 166 154 122 132 144 138 138 130 124 129 135 130 125 123 124 120 121 122 125 134 133 125 125 126 127 124 120 119 122 123 136 132 130 132 134 132 131 129 127 125 121 118 116 105 99 91 94 101 105 106 108 107 116 118 118 119 122 125 117 113 118 118 119 106 100 73 26 41 37 42 43
85 141 135 256 224 236 218 196 181 220 304 310 326 335 1 339 347 319 26 43 68 65 54 39 47 59 101 111 111 132 138 142 144 134 130 131 142 140 140 141 140 136 131 126 120 124 124 124 126 128 124 123 123 121 124 120 120 117 108 118 126 131 130 124 122 116 117 103 110 103 93 90 90 98 107 111 116 119 118 119 117 116 122 118 109 111 121 125 113 109 101 91 35 28 29 38 36
145 166 124 225 212 235 170 209 248 346 293 298 299 318 35 304 293 299 69 350 8 67 44 73 96 88 102 114 120 133 144 146 147 136 131 136 150 151 152 150 146 135 135 132 123 128 126 123 125 125 124 125 121 119 119 108 104 106 107 115 125 127 117 104 91 96 81 95 97 100 97 91 92 97 106 123 118 125 123 119 119 122 121 114 112 116 117 113 103 95 92 79 50 41 40 28 51
217 133 215 245 200 262 269 286 289 280 285 291 300 303 6 280 293 335 135 113 63 119 123 97 125 137 134 132 133 140 147 150 145 102 119 158 163 159 155 154 145 140 136 135 133 126 127 122 122 122 127 125 121 116 106 108 114 116 115 102 99 95 89 89 96 95 89 94 99 105 109 102 88 98 146 141 131 118 121 120 123 126 123 117 106 90 99 98 81 80 81 79 62 66 65 56 67
272 146 210 236 200 273 268 213 246 261 262 273 287 300 321 304 287 119 170 93 279 231 181 155 164 154 150 148 143 138 144 142 96 105 160 158 158 152 151 147 145 128 132 125 131 135 130 123 123 123 124 124 120 115 117 120 124 119 112 110 104 95 95 96 97 95 101 102 103 109 113 101 84 75 76 74 83 99 87 81 73 72 74 78 96 96 57 55 62 59 52 54 64 77 66 68 85
103 212 233 250 267 276 271 273 265 259 270 283 285 316 276 290 48 137 166 147 220 202 209 193 162 156 149 148 139 112 86 67 71 83 64 36 16 10 345 97 108 119 131 138 139 132 124 122 120 121 122 122 119 117 123 133 132 129 127 123 110 102 105 103 100 108 111 111 118 124 111 102 99 97 97 104 96 102 93 82 80 80 72 86 82 100 100 85 66 61 70 57 352 342 45 77 90
256 287 247 236 217 243 285 289 279 282 292 288 301 259 308 325 257 221 204 186 236 301 163 183 163 156 140 134 126 115 121 125 149 156 138 133 103 312 270 165 147 147 142 130 124 126 128 123 118 118 115 116 119 120 128 130 133 134 130 128 123 117 110 112 115 118 124 128 131 138 124 122 115 115 120 117 106 96 98 97 96 90 92 50 49 122 103 87 80 74 61 47 344 17 14 57 107
196 250 268 279 220 229 261 272 277 277 266 271 261 340 310 292 284 204 203 251 133 138 131 136 113 120 131 137 122 119 112 120 150 149 157 162 157 169 220 183 160 132 131 134 133 136 135 133 129 125 125 124 124 138 135 129 133 135 140 133 120 130 120 120 125 128 132 136 142 143 132 133 135 130 139 134 126 100 101 91 83 89 99 86 3 124 99 79 69 49 38 10 16 22 21 36 87
219 260 264 267 263 247 257 262 275 285 277 265 302 297 274 258 234 106 235 254 146 127 125 129 132 131 140 123 122 118 131 161 169 157 160 173 164 158 181 171 158 158 148 145 142 141 142 136 129 130 133 126 133 137 138 137 140 137 133 130 133 134 125 124 134 137 138 145 153 148 142 134 124 135 146 141 116 115 112 110 123 129 126 98 75 50 88 93 76 70 22 23 15 16 28 53 89
211 231 251 275 277 279 272 293 268 259 267 267 291 271 264 264 144 234 237 3 144 126 127 138 138 141 143 129 135 144 160 158 170 164 171 157 170 164 165 172 167 175 164 149 146 145 147 142 143 140 138 139 140 138 142 146 145 138 138 141 140 133 133 138 140 143 148 152 162 157 151 146 153 153 144 134 133 128 126 133 142 164 133 118 97 71 60 94 123 97 24 48 37 20 50 50 79
178 228 227 247 262 274 272 236 265 262 239 256 239 266 273 297 75 291 78 135 126 123 135 145 148 151 147 143 148 156 156 168 170 169 130 150 180 187 170 168 171 170 156 150 146 145 149 151 147 144 140 142 138 142 148 146 143 141 144 140 127 135 140 142 145 141 145 161 159 152 144 154 150 146 144 150 132 139 145 155 191 172 93 45 90 93 97 116 121 95 42 60 48 40 56 55 77
283 261 314 294 274 260 261 286 273 289 294 217 211 253 260 309 100 226 171 148 145 134 142 149 152 152 150 154 160 170 165 161 172 172 158 167 180 184 169 175 170 158 161 154 148 147 152 153 146 147 145 141 141 143 147 147 150 147 142 136 139 143 147 152 147 148 156 159 156 149 150 161 153 147 148 152 144 147 162 176 163 149 142 141 119 116 111 109 120 116 72 61 60 67 70 58 67
266 352 309 295 320 308 233 215 238 162 255 212 191 263 301 318 212 242 163 146 154 146 149 152 162 152 157 161 154 165 172 169 180 181 177 177 181 183 174 168 162 158 154 151 151 155 157 154 150 150 148 148 149 152 152 153 146 147 148 151 152 156 157 150 154 161 157 158 151 146 150 157 154 156 160 156 152 153 159 157 158 171 152 144 118 115 106 89 84 64 42 49 67 66 66 63 74
355 313 235 329 336 307 276 227 253 204 257 187 112 271 261 261 249 266 200 140 141 143 153 160 162 156 165 164 153 161 170 177 189 193 180 183 183 180 163 158 155 153 148 153 152 155 155 157 152 147 150 154 153 145 143 155 159 154 160 160 160 156 156 151 159 155 148 149 142 130 137 154 143 152 144 138 140 148 153 158 159 163 132 131 110 111 100 103 98 89 61 76 69 70 69 63 86
274 264 296 258 337 263 292 126 325 166 249 137 158 213 270 272 269 258 176 156 153 163 167 166 165 157 165 163 156 162 184 198 192 187 176 182 186 181 149 144 148 148 144 148 160 154 157 156 156 149 155 151 149 146 158 170 170 165 166 165 162 155 149 149 151 145 143 136 124 126 142 158 139 139 130 141 151 147 146 142 164 162 135 135 115 114 123 117 114 112 118 96 78 71 70 64 83
328 356 284 328 188 283 308 287 216 226 300 132 135 242 235 252 257 262 165 167 162 162 169 172 174 162 165 160 160 168 182 188 198 198 185 182 182 169 154 152 155 159 157 151 147 149 153 154 162 152 150 147 149 158 168 173 172 170 164 166 145 149 147 153 152 146 136 126 131 140 153 157 146 153 132 140 147 146 141 158 174 156 149 116 118 134 130 135 140 120 113 131 114 88 93 79 72
347 192 263 275 314 271 343 315 230 235 234 336 177 227 305 306 255 258 175 167 171 168 169 175 178 165 160 168 163 167 172 186 193 196 190 182 176 165 154 157 169 171 159 153 155 156 157 163 162 151 148 150 153 158 162 168 169 173 168 155 148 148 154 153 137 132 128 130 134 144 146 158 148 154 142 152 146 146 135 138 167 156 144 121 95 117 114 123 145 137 101 73 83 125 114 110 95
277 20 220 225 259 311 299 300 332 76 185 283 324 223 235 248 285 286 156 182 171 171 174 178 177 168 177 174 167 172 180 179 189 186 183 174 163 150 153 165 172 171 168 160 159 161 162 159 145 147 148 148 147 148 157 161 178 171 158 141 146 150 156 142 134 138 144 139 140 147 152 161 149 161 149 113 99 164 141 146 158 142 132 121 116 103 110 140 143 115 119 77 72 111 124 121 115
24 316 336 314 288 232 245 294 267 5 21 236 299 292 273 268 270 273 192 189 174 180 179 177 177 169 176 177 172 176 176 184 178 168 177 167 148 146 154 165 172 173 171 159 150 148 145 140 138 148 145 141 137 139 140 130 141 165 135 137 140 143 127 127 134 138 142 141 153 145 150 162 148 158 121 96 199 152 130 133 141 139 114 123 117 125 122 134 114 99 127 102 76 73 112 110 112
139 159 206 197 304 293 276 245 281 331 324 321 295 275 285 284 273 267 171 182 180 194 187 172 171 172 175 178 179 177 172 171 154 164 161 148 136 144 156 165 171 170 148 132 128 131 133 134 131 143 149 139 131 126 120 133 136 164 163 132 126 136 126 145 143 145 146 154 148 143 148 140 158 142 134 171 192 147 139 142 133 135 121 128 123 127 156 154 143 129 128 117 106 85 63 104 113
307 350 259 255 266 281 273 271 239 317 333 262 263 265 262 270 267 266 244 156 192 188 178 170 171 175 179 187 191 179 167 163 131 138 141 125 118 119 114 111 102 53 48 77 97 135 158 151 151 158 157 147 143 138 140 155 161 162 164 165 153 154 164 155 145 127 146 151 143 138 137 142 151 148 159 163 159 141 137 140 145 134 140 135 144 179 165 160 122 122 114 89 116 114 87 80 93
247 277 297 290 260 268 276 291 317 290 202 283 275 291 273 262 268 267 242 137 185 191 183 178 178 182 183 186 190 173 149 126 126 129 128 107 115 112 104 71 65 66 36 43 33 33 163 151 146 153 159 154 149 150 150 167 174 168 145 155 139 146 147 152 159 145 152 151 146 145 150 154 158 161 163 158 143 137 140 144 146 149 142 145 153 147 152 118 118 125 121 90 36 112 126 158 125
244 215 262 299 269 279 288 270 251 272 124 265 284 288 279 274 271 274 248 187 193 189 181 183 180 181 183 191 181 147 143 138 125 120 111 89 111 141 140 133 125 104 92 69 40 59 149 151 142 173 172 159 154 148 150 166 178 149 148 145 140 120 102 142 145 130 136 146 151 152 159 157 155 157 160 154 148 154 150 148 153 147 144 145 131 135 122 124 129 136 141 129 117 40 70 56 36
213 250 234 246 307 349 300 291 332 313 270 284 296 299 281 282 293 271 257 187 166 198 192 188 180 174 181 188 177 159 146 138 130 124 117 135 150 165 169 158 165 157 168 174 163 152 175 57 192 187 183 159 149 150 137 151 157 102 85 115 107 112 153 116 91 101 105 115 148 148 146 146 148 152 154 151 147 152 156 156 150 147 153 151 151 143 133 135 133 128 118 115 127 115 97 234 12
220 193 218 249 290 243 199 278 327 298 280 225 283 320 304 303 322 312 8 136 133 180 197 200 194 185 177 121 96 141 140 134 129 125 137 149 166 151 134 172 171 184 203 189 160 157 157 171 201 205 180 166 148 131 124 155 116 89 86 84 95 77 67 88 101 80 103 148 124 134 160 129 132 134 139 140 139 151 159 156 153 156 153 156 148 144 152 160 151 146 146 143 165 146 157 195 280
285 223 203 217 228 253 259 263 346 351 321 322 141 11 301 283 284 265 284 63 136 185 161 183 170 144 130 140 138 131 127 129 133 136 135 114 78 77 71 288 234 206 206 192 184 174 167 167 170 169 154 145 146 134 144 170 147 140 135 130 131 122 120 130 149 157 156 163 180 146 113 140 138 138 149 147 143 149 159 165 154 151 159 159 165 153 141 140 143 141 165 159 165 178 155 143 206
231 266 192 210 223 228 255 274 134 278 244 274 73 102 278 319 320 338 344 63 56 78 181 164 151 130 130 138 140 139 139 133 127 129 127 129 143 148 170 193 202 205 206 176 167 184 172 155 164 162 157 150 138 145 157 167 140 144 156 153 147 154 150 189 153 151 158 157 108 135 151 146 144 144 155 157 152 156 161 165 161 162 165 170 166 142 157 171 160 163 150 160 173 153 137 162 185
238 234 173 202 214 226 235 231 187 240 270 278 60 118 198 306 297 334 323 55 50 56 73 113 132 134 133 138 142 137 129 132 136 137 142 156 170 175 184 198 197 202 191 162 170 178 174 171 172 168 153 152 152 153 169 187 157 155 147 137 138 146 158 163 161 139 103 121 123 138 145 155 112 129 151 163 160 160 160 156 151 153 155 174 169 175 173 159 148 157 159 166 153 167 174 171 188
223 229 165 189 205 220 218 185 205 228 38 291 341 343 134 260 263 326 346 72 22 28 117 131 131 132 137 135 123 121 132 133 135 142 156 166 188 193 193 195 200 194 179 180 185 186 184 178 169 151 146 144 146 154 167 198 157 153 149 142 142 155 150 152 134 108 125 120 121 112 140 122 92 104 156 159 163 161 170 166 158 157 161 175 176 179 165 159 169 167 157 158 162 173 184 180 164
259 237 153 204 202 195 180 184 179 318 226 272 279 154 216 279 283 340 358 62 18 331 341 131 145 146 144 131 125 130 133 137 144 153 164 181 189 192 199 192 181 193 190 193 194 198 195 168 155 149 144 142 143 150 169 185 157 146 149 157 151 144 132 117 119 123 123 119 120 122 125 127 142 141 66 103 138 199 175 166 171 176 183 175 177 183 169 167 173 174 175 172 162 163 176 168 186
90 120 199 238 49 1 33 89 108 60 263 257 240 229 162 266 272 275 24 332 295 260 142 119 138 141 134 130 133 139 140 147 150 159 174 181 188 191 171 179 197 197 193 191 193 180 185 176 156 152 148 137 142 155 165 174 160 164 160 164 155 147 146 140 122 95 88 91 116 122 141 147 126 122 105 70 85 79 104 146 174 184 184 174 173 176 181 177 178 177 175 167 167 166 171 176 175
186 197 183 244 280 4 49 346 39 146 265 261 246 197 169 196 295 318 300 283 231 198 181 161 159 157 145 145 142 140 142 146 150 160 172 176 158 167 184 191 200 204 186 188 186 174 169 166 154 145 138 144 141 147 153 162 161 175 166 161 154 150 147 150 149 145 149 142 137 130 125 103 85 81 85 94 84 80 88 81 128 147 165 158 183 192 180 175 162 160 167 173 180 178 163 167 172
153 101 53 153 264 32 322 11 260 207 207 243 9 161 79 235 214 303 327 332 307 200 216 177 166 155 147 145 145 143 149 154 159 169 174 170 178 172 185 196 197 202 206 190 181 172 162 157 156 149 149 142 143 148 152 157 164 169 164 158 149 149 150 151 144 145 161 146 143 130 129 123 127 105 128 127 158 162 141 120 131 141 143 176 166 158 158 143 143 154 164 172 170 172 177 169 174
135 166 154 109 147 154 244 276 212 306 281 254 276 299 152 255 281 346 337 7 42 123 226 330 169 138 128 123 136 150 159 164 159 163 169 169 181 171 159 127 58 25 345 121 138 145 151 147 148 149 142 141 135 129 141 158 168 162 156 151 146 145 147 145 147 154 164 157 152 146 144 144 136 146 154 155 177 137 94 112 122 119 132 125 139 149 139 137 139 149 164 171 178 169 153 168 173
194 151 155 178 146 158 220 225 236 221 208 280 303 149 255 9 268 335 1 54 59 87 105 88 104 104 105 88 63 46 42 43 58 331 60 45 35 56 80 87 88 83 88 69 78 96 100 130 149 149 151 155 143 135 138 155 149 138 136 136 138 143 145 142 146 152 152 155 163 143 145 144 139 167 152 165 145 112 106 94 114 124 127 131 132 123 113 108 114 113 137 151 122 148 153 146 155
192 161 85 88 218 138 209 200 174 238 272 19 359 17 276 184 294 336 331 59 55 74 68 61 40 104 114 109 100 88 120 168 169 138 53 55 63 64 74 85 96 102 99 100 101 107 115 141 163 170 170 163 145 131 129 143 139 130 127 126 125 125 116 115 121 136 164 167 166 156 157 160 151 150 153 136 148 129 123 104 93 118 126 120 125 118 116 112 115 118 118 123 122 136 140 148 163
250 103 180 206 173 129 84 19 145 89 49 226 234 50 303 316 299 354 344 39 68 74 81 72 55 17 22 64 106 147 173 170 157 124 88 83 71 72 84 92 106 117 102 98 101 112 132 149 151 156 171 165 124 97 75 52 119 115 111 112 120 125 138 151 159 167 173 176 163 162 152 153 136 134 148 148 137 127 122 118 112 119 125 129 114 110 110 106 104 111 124 125 124 132 137 155 158
92 145 243 145 91 116 130 200 348 62 183 246 33 181 268 63 270 317 335 3 333 39 97 88 83 60 26 17 85 117 154 141 109 90 94 96 96 102 99 93 110 126 117 109 107 108 103 108 105 94 37 329 92 98 79 31 18 116 123 129 142 157 159 156 150 159 166 151 153 126 115 124 142 140 132 145 129 130 114 104 110 109 124 128 141 131 119 111 100 84 92 85 132 122 112 111 144
172 197 190 123 268 221 322 97 117 150 250 239 9 345 253 161 241 265 220 224 237 301 296 129 134 139 154 126 96 100 104 99 95 93 87 83 97 107 106 104 104 97 102 118 119 108 97 98 120 117 90 43 32 77 96 117 154 125 121 116 116 116 149 144 147 149 151 155 151 141 135 130 115 117 119 119 114 104 106 97 106 110 117 128 127 134 126 118 115 100 76 85 65 117 117 118 143
58 114 62 329 106 156 146 207 179 117 205 70 286 68 230 227 216 255 259 253 286 298 288 271 143 128 130 128 117 94 89 75 76 70 78 87 93 101 109 111 102 97 100 108 112 111 101 99 103 99 93 92 92 103 116 116 120 113 115 117 121 127 104 111 135 138 148 154 149 144 137 133 146 126 124 123 117 115 111 101 82 96 99 105 115 101 114 119 92 98 113 97 76 117 110 121 113
10 133 315 334 6 206 110 43 117 169 166 174 154 247 277 268 288 270 226 88 341 300 312 15 9 29 98 111 104 85 80 77 72 74 84 93 99 98 101 106 98 86 89 94 101 108 111 101 94 96 106 113 109 124 114 121 115 118 127 143 141 96 86 77 103 127 140 143 142 141 144 145 124 134 136 129 126 126 111 105 100 103 119 122 121 104 69 101 98 88 64 89 78 96 109 97 104
135 151 114 176 120 127 170 260 18 81 101 188 136 230 272 284 352 312 177 153 112 350 57 28 19 15 3 83 97 82 76 76 81 84 92 94 95 103 105 96 96 86 79 82 82 90 92 100 107 108 114 124 130 131 124 123 127 148 147 135 110 116 113 121 145 144 145 140 143 147 143 130 137 154 145 143 139 134 114 111 110 113 113 116 117 114 100 107 114 102 79 57 95 97 98 90 97